Nome, AK

5:47 AM AKDT on September 22, 2017 (GMT -0800)
Nome

Weather History for PAOM - September, 2013

Change the Weather History Date:

Friday, September 13, 2013

  Actual Average Record
Temperature  
Mean Temperature 44 °F 44 °F  
Max Temperature 53 °F 50 °F 62 °F (1963)
Min Temperature 35 °F 38 °F 20 °F (1987)
Degree Days  
Heating Degree Days 21 21  
Month to date heating degree days 249 244  
Since 1 July heating degree days 1023 1104  
Cooling Degree Days 0 0  
Month to date cooling degree days 0 0  
Year to date cooling degree days 7 3  
Moisture  
Dew Point 41 °F    
Average Humidity 0    
Maximum Humidity 0    
Minimum Humidity 0    
Precipitation  
Precipitation 0.05 in 0.09 in 1.04 in (1985)
Month to date precipitation 1.61 1.18  
Year to date precipitation 14.72 11.63  
Snow  
Snow 0.00 in 0.00 in T in (1987)
Month to date snowfall 0.0 0.1  
Since 1 July snowfall 0.0 0.1  
Since 1 September snowfall 0.0 0.1  
Snow Depth 0.00 in    
Sea Level Pressure  
Sea Level Pressure 29.86 in    
Wind  
Wind Speed 7 mph (WSW)    
Max Wind Speed 20 mph    
Max Gust Speed 25 mph    
Visibility 8 miles    
Events Rain    
T = Trace of Precipitation, MM = Missing Value Source: NWS Daily Summary

Daily Weather History Graph

Daily Weather History Graph

Search for Another Location

Airport or City:

Trip Planner

Search our weather history database for the weather conditions in past years. The results will help you decide how hot, cold, wet, or windy it might be!

Date:

Astronomy

Sep. 13, 2013 Rise Set
Actual Time 8:19 AM AKDT 9:33 PM AKDT
Civil Twilight 7:29 AM AKDT 10:23 PM AKDT
Nautical Twilight 6:25 AM AKDT 11:26 PM AKDT
Astronomical Twilight 5:04 AM AKDT 12:45 AM AKDT
Moon 7:12 PM AKDT (9/13) 12:14 AM AKDT (9/13)
Length of Visible Light 14h 53m
Length of Day
13h 13m
Waxing Gibbous, 63% of the Moon is Illuminated
Sep 13
Waxing Gibbous
Sep 19
Full
Sep 26
Last Quarter
Oct 4
New
Oct 11
First Quarter

Hourly Weather History & Observations

Time (AKDT) Temp. Windchill Dew Point Humidity Pressure Visibility Wind Dir Wind Speed Gust Speed Precip Events Conditions
12:53 AM 36.0 °F - 34.0 °F 93% 29.81 in 10.0 mi Calm Calm - N/A   Scattered Clouds
1:53 AM 36.0 °F - 34.0 °F 93% 29.83 in 10.0 mi Calm Calm - N/A   Scattered Clouds
2:53 AM 36.0 °F - 34.0 °F 93% 29.83 in 10.0 mi Calm Calm - N/A   Mostly Cloudy
3:53 AM 36.0 °F - 35.1 °F 97% 29.85 in 10.0 mi Calm Calm - N/A   Overcast
4:53 AM 37.9 °F - 36.0 °F 93% 29.85 in 10.0 mi Calm Calm - N/A   Overcast
5:53 AM 37.0 °F - 36.0 °F 96% 29.84 in 10.0 mi Calm Calm - N/A   Overcast
6:53 AM 39.9 °F - 37.0 °F 89% 29.84 in 10.0 mi Calm Calm - N/A   Overcast
7:11 AM 39.2 °F - 35.6 °F 87% 29.84 in 10.0 mi Calm Calm - N/A   Overcast
7:53 AM 41.0 °F 37.1 °F 37.0 °F 86% 29.84 in 10.0 mi SE 5.8 mph - 0.00 in   Overcast
8:51 AM 46.4 °F 40.7 °F 39.2 °F 76% 29.84 in 10.0 mi SSW 12.7 mph - 0.00 in Rain Light Rain
8:53 AM 46.9 °F - 39.0 °F 74% 29.84 in 10.0 mi SSW 11.5 mph - 0.00 in Rain Light Rain
9:53 AM 46.9 °F - 39.9 °F 77% 29.83 in 9.0 mi South 12.7 mph - 0.00 in Rain Light Rain
10:19 AM 44.6 °F 37.4 °F 39.2 °F 81% 29.84 in 4.0 mi SSW 16.1 mph - 0.00 in Rain Light Rain
10:27 AM 44.6 °F 38.4 °F 42.8 °F 93% 29.84 in 2.0 mi SSW 12.7 mph - 0.00 in Rain Light Rain
10:53 AM 46.0 °F 40.2 °F 39.0 °F 76% 29.84 in 10.0 mi SSW 12.7 mph 19.6 mph 0.01 in   Overcast
11:12 AM 44.6 °F 37.2 °F 42.8 °F 93% 29.84 in 2.5 mi SSW 17.3 mph - 0.00 in Rain Light Rain
11:26 AM 46.4 °F 39.8 °F 44.6 °F 93% 29.84 in 1.8 mi SSW 16.1 mph - 0.00 in Rain Light Rain
11:41 AM 46.4 °F 40.4 °F 44.6 °F 93% 29.84 in 1.2 mi SSW 13.8 mph - 0.00 in Rain Light Rain
11:53 AM 46.0 °F 39.0 °F 44.1 °F 93% 29.84 in 1.5 mi SSW 17.3 mph - 0.01 in Rain Light Rain
12:15 PM 46.4 °F 40.1 °F 44.6 °F 93% 29.84 in 2.0 mi SSW 15.0 mph - 0.00 in Rain Light Rain
12:53 PM 46.9 °F - 46.0 °F 97% 29.84 in 2.0 mi WSW 15.0 mph - 0.01 in Rain Light Rain
1:08 PM 46.4 °F 40.1 °F 46.4 °F 100% 29.84 in 1.8 mi WSW 15.0 mph - 0.00 in Rain Light Rain
1:15 PM 46.4 °F 40.4 °F 46.4 °F 100% 29.84 in 2.0 mi WSW 13.8 mph - 0.01 in Rain Light Rain
1:29 PM 46.4 °F 41.1 °F 46.4 °F 100% 29.84 in 2.0 mi WSW 11.5 mph - 0.02 in Rain Light Rain
1:51 PM 46.4 °F 41.1 °F 46.4 °F 100% 29.85 in 3.0 mi West 11.5 mph - 0.02 in Rain Light Rain
1:53 PM 46.9 °F - 46.0 °F 97% 29.85 in 3.0 mi West 10.4 mph - 0.02 in   Overcast
2:53 PM 46.9 °F - 45.0 °F 93% 29.87 in 10.0 mi West 10.4 mph - N/A   Overcast
3:53 PM 48.0 °F - 46.0 °F 93% 29.87 in 10.0 mi West 9.2 mph - N/A   Mostly Cloudy
4:25 PM 48.2 °F - 46.4 °F 93% 29.88 in 10.0 mi SW 10.4 mph - N/A   Overcast
4:51 PM 50.0 °F - 44.6 °F 82% 29.88 in 10.0 mi Variable 5.8 mph - N/A   Mostly Cloudy
4:53 PM 50.0 °F - 45.0 °F 83% 29.88 in 10.0 mi WSW 8.1 mph - N/A   Mostly Cloudy
5:53 PM 52.0 °F - 43.0 °F 71% 29.90 in 10.0 mi WNW 11.5 mph - N/A   Mostly Cloudy
6:53 PM 52.0 °F - 43.0 °F 71% 29.91 in 10.0 mi WSW 6.9 mph - N/A   Scattered Clouds
7:53 PM 51.1 °F - 41.0 °F 68% 29.92 in 10.0 mi North 6.9 mph - N/A   Scattered Clouds
8:53 PM 46.0 °F 43.1 °F 39.9 °F 79% 29.94 in 10.0 mi NNW 5.8 mph - N/A   Scattered Clouds
9:53 PM 44.1 °F - 37.0 °F 76% 29.96 in 10.0 mi Calm Calm - N/A   Mostly Cloudy
10:53 PM 41.0 °F 38.0 °F 35.1 °F 79% 29.97 in 10.0 mi NNE 4.6 mph - N/A   Mostly Cloudy
11:53 PM 39.0 °F 36.8 °F 34.0 °F 82% 29.99 in 10.0 mi NW 3.5 mph - N/A   Mostly Cloudy